Terminal Aerodrome Forecast
Issued by NWS

Home | Current Version | Previous Version | Text Only | Print | Product List | Glossary On
Versions: 1 2 3 4 5 6 7 8 9 10 11 12 13 14 15 16 17 18 19 20 21 22 23 24
000
FTUS43 KDLH 270309 AAB
TAFBRD
TAF AMD
KBRD 270309Z 2703/2724 36010KT 6SM BR FEW006 SCT023 OVC050
     FM270400 01007KT P6SM VCSH OVC010
     FM271100 34007KT P6SM OVC015
     FM271600 33011KT P6SM OVC010
     FM272300 31009KT P6SM BKN035=

USA.gov is the U.S. government's official web portal to all federal, state and local government web resources and services.